GW1920 Weather Reports


Display with metric or nautical units.
time (UTC)temp
F
wind
direction
speed
MPH
gust
MPH
rain 1hr
in
rain 24hr
in
rain mn
in
humidity
%
barometer
mb
20260901135903 57 21 0.0 0.0 0.00 0.00 0.00 98 1008.0
20260901135357 57 20 0.0 0.0 0.00 0.00 0.00 98 1007.9
20260901134854 57 20 0.0 0.0 0.00 0.00 0.00 98 1007.7
20260901134348 57 20 0.0 0.0 0.00 0.00 0.00 98 1007.7
20260901133843 57 20 0.0 0.0 0.00 0.00 0.00 98 1007.6
20260901133342 57 20 0.0 0.0 0.00 0.00 0.00 98 1007.7
20260901132840 57 20 0.0 0.0 0.00 0.00 0.00 98 1007.4
20260901132335 57 20 0.0 0.0 0.00 0.00 0.00 97 1007.5
20260901131830 57 20 0.0 0.0 0.00 0.00 0.00 97 1007.7
20260901131329 58 20 0.0 0.0 0.00 0.00 0.00 98 1007.4
20260901130824 57 20 0.0 0.0 0.00 0.00 0.00 97 1007.5
20260901130319 57 20 0.0 0.0 0.00 0.00 0.00 98 1007.3
20260901125816 58 20 0.0 0.0 0.00 0.00 0.00 98 1007.3
20260901125311 58 20 0.0 0.0 0.00 0.00 0.00 97 1007.3
20260901124806 58 20 0.0 0.0 0.00 0.00 0.00 97 1007.5
20260901124301 58 20 0.0 0.0 0.00 0.00 0.00 97 1007.4
20260901123800 58 20 0.0 0.0 0.00 0.00 0.00 97 1007.5
20260901123255 58 20 0.0 0.0 0.00 0.00 0.00 97 1007.5
20260901122754 58 20 0.0 0.0 0.00 0.00 0.00 97 1007.5
20260901122249 58 20 0.0 0.0 0.00 0.00 0.00 97 1007.3
20260901121748 58 20 0.0 0.0 0.00 0.00 0.00 97 1007.3
20260901121244 58 20 0.0 0.0 0.00 0.00 0.00 97 1007.4
20260901120743 58 20 0.0 0.0 0.00 0.00 0.00 97 1007.4
20260901120238 58 20 0.0 0.0 0.00 0.00 0.00 97 1007.6
20260901115734 58 20 0.0 0.0 0.00 0.00 0.00 97 1007.5
20260901115229 58 17 0.0 0.0 0.00 0.00 0.00 97 1007.5
20260901114726 58 10 0.0 0.0 0.00 0.00 0.00 97 1007.6
20260901114221 58 10 0.0 0.0 0.00 0.00 0.00 97 1007.3
20260901113719 58 23 0.0 0.0 0.00 0.00 0.00 97 1007.6
20260901113215 58 23 0.0 0.0 0.00 0.00 0.00 97 1007.7
20260901112714 58 23 0.0 0.0 0.00 0.00 0.00 97 1007.6
20260901112209 58 23 0.0 0.0 0.00 0.00 0.00 97 1007.7
20260901111708 58 23 0.0 0.0 0.00 0.00 0.00 97 1007.6
20260901111202 58 23 0.0 0.0 0.00 0.00 0.00 97 1007.7
20260901110656 58 23 0.0 0.0 0.00 0.00 0.00 97 1007.5
20260901110152 58 23 0.0 0.0 0.00 0.00 0.00 97 1007.5
20260901105648 58 23 0.0 0.0 0.00 0.00 0.00 97 1007.4
20260901105148 58 23 0.0 0.0 0.00 0.00 0.00 97 1007.6
20260901104644 58 23 0.0 0.0 0.00 0.00 0.00 97 1007.7
20260901104139 58 23 0.0 0.0 0.00 0.00 0.00 96 1007.8
20260901103638 58 23 0.0 0.0 0.00 0.00 0.00 96 1007.7
20260901103134 58 23 0.0 0.0 0.00 0.00 0.00 96 1007.7
20260901102634 58 24 0.0 0.0 0.00 0.00 0.00 96 1007.8
20260901102128 58 23 0.0 0.0 0.00 0.00 0.00 96 1007.9
20260901101625 58 23 0.0 0.0 0.00 0.00 0.00 96 1007.8
20260901101123 58 23 0.0 0.0 0.00 0.00 0.00 96 1007.7
20260901100623 58 23 0.0 0.0 0.00 0.00 0.00 95 1007.6
20260901100118 58 23 0.0 0.0 0.00 0.00 0.00 96 1007.8
20260901095617 58 24 0.0 0.0 0.00 0.00 0.00 96 1007.7
20260901095114 59 10 0.0 0.0 0.00 0.00 0.00 96 1007.7
20260901094609 59 10 0.0 0.0 0.00 0.00 0.00 95 1007.9
20260901094103 59 10 0.0 0.0 0.00 0.00 0.00 96 1007.8
20260901093558 59 9 0.0 0.0 0.00 0.00 0.00 95 1007.9
20260901093058 59 9 0.0 0.0 0.00 0.00 0.00 95 1007.8
20260901092553 59 9 0.0 0.0 0.00 0.00 0.00 95 1007.7
20260901092050 59 9 0.0 0.0 0.00 0.00 0.00 95 1007.9
20260901091546 59 9 0.0 0.0 0.00 0.00 0.00 95 1007.9
20260901091046 59 9 0.0 0.0 0.00 0.00 0.00 95 1007.8
20260901090545 59 10 0.0 0.0 0.00 0.00 0.00 95 1008.2
20260901090041 59 9 0.0 0.0 0.00 0.00 0.00 95 1007.9
20260901085536 59 359 0.0 0.0 0.00 0.00 0.00 95 1007.9
20260901085033 59 359 0.0 0.0 0.00 0.00 0.00 94 1007.8
20260901084528 59 359 0.0 0.0 0.00 0.00 0.00 94 1008.1
20260901084025 59 359 0.0 0.0 0.00 0.00 0.00 94 1007.8
20260901083524 59 359 0.0 0.0 0.00 0.00 0.00 94 1007.9
20260901083022 59 359 0.0 0.0 0.00 0.00 0.00 94 1007.9
20260901082518 59 359 0.0 0.0 0.00 0.00 0.00 94 1007.9
20260901082013 59 359 0.0 0.0 0.00 0.00 0.00 94 1007.8
20260901081508 59 5 0.0 0.0 0.00 0.00 0.00 94 1008.0
20260901081003 59 5 0.0 0.0 0.00 0.00 0.00 94 1007.7
20260901080502 59 343 0.0 0.0 0.00 0.00 0.00 94 1007.5
20260901075956 59 343 0.0 0.0 0.00 0.00 0.00 94 1007.7
20260901075452 59 351 0.0 0.0 0.00 0.00 0.00 94 1007.6
20260901074950 59 34 0.0 0.0 0.00 0.00 0.00 93 1008.0
20260901074445 59 38 0.0 0.0 0.00 0.00 0.00 93 1008.0
20260901073941 59 24 0.0 0.0 0.00 0.00 0.00 94 1007.9
20260901073438 59 354 0.0 0.0 0.00 0.00 0.00 93 1007.9
20260901072938 59 11 0.0 0.0 0.00 0.00 0.00 93 1007.8
20260901072438 59 12 0.0 0.0 0.00 0.00 0.00 93 1007.5
20260901071933 59 12 0.0 0.0 0.00 0.00 0.00 93 1007.8
20260901071432 59 16 0.0 0.0 0.00 0.00 0.00 93 1007.7
20260901070926 59 26 0.0 0.0 0.00 0.00 0.00 93 1007.6
20260901070421 59 23 0.0 0.0 0.00 0.00 0.00 93 1007.7
20260901065920 59 23 0.0 0.0 0.00 0.00 0.00 93 1007.8
20260901065416 59 23 0.0 0.0 0.00 0.00 0.00 93 1007.8
20260901064911 59 23 0.0 0.0 0.00 0.00 0.00 93 1007.8
20260901064407 59 23 0.0 0.0 0.00 0.00 0.00 93 1007.8
20260901063904 59 20 0.0 0.0 0.00 0.00 0.00 93 1007.8
20260901063401 59 24 0.0 0.0 0.00 0.00 0.00 93 1008.0
20260901062856 59 5 0.0 0.0 0.00 0.00 0.00 93 1007.9
20260901062352 59 4 0.0 0.0 0.00 0.00 0.00 94 1007.9
20260901061847 59 3 0.0 0.0 0.00 0.00 0.00 94 1007.8
20260901061343 59 3 0.0 0.0 0.00 0.00 0.00 93 1007.8
20260901060838 59 3 0.0 0.0 0.00 0.00 0.00 93 1007.9
20260901060334 59 3 0.0 0.0 0.00 0.00 0.00 93 1007.9
20260901055833 59 3 0.0 0.0 0.00 0.00 0.00 94 1007.9
20260901055329 59 2 0.0 0.0 0.00 0.00 0.00 94 1008.1
20260901054826 59 2 0.0 0.0 0.00 0.00 0.00 94 1008.1
20260901054323 59 2 0.0 0.0 0.00 0.00 0.00 94 1008.2
20260901053818 59 2 0.0 0.0 0.00 0.00 0.00 94 1008.2
20260901053313 60 2 0.0 0.0 0.00 0.00 0.00 94 1008.2
20260901052809 60 2 0.0 0.0 0.00 0.00 0.00 94 1008.1
20260901052307 60 2 0.0 0.0 0.00 0.00 0.00 95 1008.4
20260901051757 60 2 0.0 0.0 0.00 0.00 0.00 94 1008.2
20260901051252 60 2 0.0 0.0 0.00 0.00 0.00 95 1008.4
20260901050748 60 2 0.0 0.0 0.00 0.00 0.00 95 1008.4
20260901050243 60 2 0.0 0.0 0.00 0.00 0.00 95 1008.1
20260901045738 60 2 0.0 0.0 0.00 0.00 0.00 95 1008.4
20260901045232 60 2 0.0 0.0 0.00 0.00 0.00 95 1008.4
20260901044728 60 2 0.0 0.0 0.00 0.00 0.00 95 1008.4
20260901044224 60 2 0.0 0.0 0.00 0.00 0.00 95 1008.6
20260901043720 60 2 0.0 0.0 0.00 0.00 0.00 94 1008.4
20260901043215 60 2 0.0 0.0 0.00 0.00 0.00 94 1008.2
20260901042714 60 2 0.0 0.0 0.00 0.00 0.00 94 1008.2
20260901042209 60 0 0.0 0.0 0.00 0.00 0.00 94 1008.2
20260901041706 60 0 0.0 0.0 0.00 0.00 0.00 94 1008.4
20260901041205 60 0 0.0 0.0 0.00 0.00 0.00 94 1008.3
20260901040659 60 0 0.0 0.0 0.00 0.00 0.00 94 1008.1
20260901040153 60 0 0.0 0.0 0.00 0.00 0.00 94 1008.1
20260901035652 60 0 0.0 0.0 0.00 0.00 0.00 94 1008.0
20260901035150 60 0 0.0 0.0 0.00 0.00 0.00 93 1008.1
20260901034644 60 0 0.0 0.0 0.00 0.00 0.00 93 1007.9
20260901034139 61 0 0.0 0.0 0.00 0.00 0.00 93 1007.8
20260901033638 61 0 0.0 0.0 0.00 0.00 0.00 93 1007.9
20260901033137 61 0 0.0 0.0 0.00 0.00 0.00 93 1008.1
20260901032636 61 0 0.0 0.0 0.00 0.00 0.00 92 1007.8
20260901032131 61 0 0.0 0.0 0.00 0.00 0.00 93 1008.2
20260901031626 61 0 0.0 0.0 0.00 0.00 0.00 93 1008.0
20260901031122 61 0 0.0 0.0 0.00 0.00 0.00 93 1007.9
20260901030617 61 0 0.0 0.0 0.00 0.00 0.00 93 1007.8
20260901030112 61 0 0.0 0.0 0.00 0.00 0.00 93 1007.8
20260901025606 61 0 0.0 0.0 0.00 0.00 0.00 92 1007.8
20260901025100 61 0 0.0 0.0 0.00 0.00 0.00 92 1007.6
20260901024555 62 0 0.0 0.0 0.00 0.00 0.00 91 1007.6
20260901024054 62 0 0.0 0.0 0.00 0.00 0.00 91 1007.6
20260901023553 62 0 0.0 0.0 0.00 0.00 0.00 91 1007.7
20260901023048 62 0 0.0 0.0 0.00 0.00 0.00 91 1007.8
20260901022543 62 0 0.0 0.0 0.00 0.00 0.00 91 1007.8
20260901022039 62 347 0.0 0.0 0.00 0.00 0.00 91 1007.7
20260901021534 62 347 0.0 0.0 0.00 0.00 0.00 91 1007.8
20260901021029 62 347 0.0 0.0 0.00 0.00 0.00 90 1007.7
20260901020525 62 347 0.0 0.0 0.00 0.00 0.00 90 1007.8
20260901020020 62 347 0.0 0.0 0.00 0.00 0.00 89 1007.9
20260901015515 62 347 0.0 0.0 0.00 0.00 0.00 89 1007.7
20260901015015 62 347 0.0 0.0 0.00 0.00 0.00 89 1007.7
20260901014511 62 347 0.0 0.0 0.00 0.00 0.00 89 1007.5
20260901014007 62 348 0.0 0.0 0.00 0.00 0.00 89 1007.7
20260901013502 62 348 0.0 0.0 0.00 0.00 0.00 89 1007.6
20260901012957 62 348 0.0 0.0 0.00 0.00 0.00 89 1007.6
20260901012457 62 334 0.0 0.0 0.00 0.00 0.00 89 1007.6
20260901011953 63 348 0.0 0.0 0.00 0.00 0.00 88 1007.6
20260901011449 63 344 0.0 0.0 0.00 0.00 0.00 88 1007.6
20260901010946 63 348 0.0 0.0 0.00 0.00 0.00 88 1007.5
20260901010442 63 348 0.0 0.0 0.00 0.00 0.00 88 1007.6
20260901005941 63 347 0.0 0.0 0.00 0.00 0.00 88 1007.6
20260901005436 62 349 0.0 0.0 0.00 0.00 0.00 88 1007.5
20260901004931 62 344 0.0 0.0 0.00 0.00 0.00 88 1007.8
20260901004430 63 347 0.0 0.0 0.00 0.00 0.00 88 1007.6
20260901003925 62 341 1.0 1.0 0.00 0.00 0.00 88 1007.7
20260901003420 62 344 0.0 0.0 0.00 0.00 0.00 88 1007.8
20260901002919 62 348 2.0 2.0 0.00 0.00 0.00 88 1007.7
20260901002418 62 326 2.0 2.0 0.00 0.00 0.00 88 1007.6
20260901001913 63 354 1.0 1.0 0.00 0.00 0.00 88 1007.6
20260901001409 63 334 2.0 2.0 0.00 0.00 0.00 87 1007.6
20260901000904 63 333 0.0 0.0 0.00 0.00 0.00 86 1007.7
20260901000359 64 342 1.0 2.0 0.00 0.00 0.00 85 1007.7
20260831235857 64 349 1.0 1.0 0.00 0.00 0.00 85 1007.5
20260831235354 63 349 1.0 1.0 0.00 0.00 0.00 85 1007.6
20260831234853 63 339 2.0 2.0 0.00 0.00 0.00 84 1007.7
20260831234348 64 345 1.0 2.0 0.00 0.00 0.00 84 1007.6
20260831233844 64 347 1.0 2.0 0.00 0.00 0.00 84 1007.9
20260831233338 64 346 1.0 1.0 0.00 0.00 0.00 84 1008.0
20260831232834 64 345 1.0 1.0 0.00 0.00 0.00 85 1008.1
20260831232330 64 320 1.0 1.0 0.00 0.00 0.00 84 1007.9
20260831231826 63 351 1.0 1.0 0.00 0.00 0.00 83 1008.2
20260831231322 63 348 0.0 1.0 0.00 0.00 0.00 85 1008.1
20260831230817 63 335 2.0 2.0 0.00 0.00 0.00 85 1008.0
20260831230312 63 319 1.0 2.0 0.00 0.00 0.00 85 1007.9
20260831225812 63 314 4.0 5.0 0.00 0.00 0.00 85 1008.3
20260831225307 64 343 2.0 2.0 0.00 0.00 0.00 84 1008.0
20260831224802 64 347 0.0 1.0 0.00 0.00 0.00 85 1007.9
20260831224257 64 342 1.0 2.0 0.00 0.00 0.00 84 1008.1
20260831223752 64 349 1.0 1.0 0.00 0.00 0.00 84 1008.1
20260831223248 64 344 0.0 0.0 0.00 0.00 0.00 85 1008.0
20260831222744 64 317 3.0 3.0 0.00 0.00 0.00 84 1008.0
20260831222240 64 340 3.0 3.0 0.00 0.00 0.00 84 1008.0
20260831221735 64 345 1.0 1.0 0.00 0.00 0.00 84 1007.9
20260831221230 64 337 1.0 1.0 0.00 0.00 0.00 84 1008.2
20260831220725 64 349 1.0 1.0 0.00 0.00 0.00 84 1008.2
20260831220220 64 347 1.0 1.0 0.00 0.00 0.00 84 1008.1
20260831215715 64 348 1.0 2.0 0.00 0.00 0.00 84 1008.3
20260831215211 64 354 0.0 0.0 0.00 0.00 0.00 85 1008.1
20260831214708 64 340 0.0 0.0 0.00 0.00 0.00 84 1008.1
20260831214204 64 348 0.0 0.0 0.00 0.00 0.00 84 1008.4
20260831213700 64 334 2.0 2.0 0.00 0.00 0.00 84 1008.3
20260831213156 63 338 2.0 2.0 0.00 0.00 0.00 85 1008.6
20260831212651 63 347 1.0 2.0 0.00 0.00 0.00 86 1008.4
20260831212148 63 310 2.0 2.0 0.00 0.00 0.00 87 1008.5
20260831211647 63 314 3.0 3.0 0.00 0.00 0.00 86 1008.4
20260831211142 64 347 0.0 1.0 0.00 0.00 0.00 86 1008.1
20260831210636 64 337 1.0 1.0 0.00 0.00 0.00 84 1008.5
20260831210133 64 341 0.0 0.0 0.00 0.00 0.00 84 1008.4
20260831205631 64 0 1.0 2.0 0.00 0.00 0.00 84 1008.4
20260831205128 64 333 0.0 0.0 0.00 0.00 0.00 83 1008.2
20260831204627 64 244 2.0 2.0 0.00 0.00 0.00 83 1008.3
20260831204126 64 341 0.0 0.0 0.00 0.00 0.00 83 1008.2
20260831203621 64 43 1.0 1.0 0.00 0.00 0.00 83 1008.2
20260831203120 65 346 0.0 0.0 0.00 0.00 0.00 80 1008.4
20260831202619 65 292 0.0 0.0 0.00 0.00 0.00 82 1008.2
20260831202120 64 339 0.0 0.0 0.00 0.00 0.00 81 1007.9
20260831201619 64 0 0.0 0.0 0.00 0.00 0.00 83 1008.2
20260831201113 64 342 0.0 0.0 0.00 0.00 0.00 82 1008.2
20260831200610 64 3 0.0 0.0 0.00 0.00 0.00 82 1008.4
20260831200104 64 281 1.0 1.0 0.00 0.00 0.00 83 1008.3
20260831195559 64 0 0.0 0.0 0.00 0.00 0.00 82 1008.2
20260831195055 64 343 0.0 0.0 0.00 0.00 0.00 81 1008.5
20260831194550 64 354 0.0 1.0 0.00 0.00 0.00 82 1008.4
20260831194044 64 261 1.0 1.0 0.00 0.00 0.00 82 1008.3
20260831193540 64 338 0.0 0.0 0.00 0.00 0.00 82 1008.4
20260831193039 64 347 0.0 0.0 0.00 0.00 0.00 84 1008.2
20260831192534 64 326 0.0 1.0 0.00 0.00 0.00 83 1008.5
20260831192030 63 20 0.0 0.0 0.00 0.00 0.00 83 1008.4
20260831191526 63 14 0.0 0.0 0.00 0.00 0.00 83 1008.3
20260831191022 63 358 0.0 0.0 0.00 0.00 0.00 84 1008.3
20260831190517 63 4 0.0 0.0 0.00 0.00 0.00 84 1008.3
20260831190015 63 12 0.0 0.0 0.00 0.00 0.00 84 1008.5
20260831185512 63 54 0.0 0.0 0.00 0.00 0.00 85 1008.3
20260831185007 62 353 0.0 0.0 0.00 0.00 0.00 84 1008.3
20260831184501 62 339 0.0 0.0 0.00 0.00 0.00 84 1008.3
20260831183956 62 354 0.0 0.0 0.00 0.00 0.00 84 1008.1
20260831183455 62 25 0.0 1.0 0.00 0.00 0.00 84 1008.2
20260831182955 62 333 0.0 1.0 0.00 0.00 0.00 84 1008.1
20260831182450 62 343 0.0 0.0 0.00 0.00 0.00 84 1008.3
20260831181946 62 312 0.0 1.0 0.00 0.00 0.00 85 1008.2
20260831181441 62 48 0.0 1.0 0.00 0.00 0.00 84 1008.2
20260831180935 62 341 1.0 1.0 0.00 0.00 0.00 84 1008.1
20260831180430 62 7 0.0 0.0 0.00 0.00 0.00 85 1008.1
20260831175929 62 344 0.0 1.0 0.00 0.00 0.00 85 1008.1
20260831175426 61 71 1.0 1.0 0.00 0.00 0.00 85 1007.8
20260831174921 61 0 0.0 0.0 0.00 0.00 0.00 86 1007.9
20260831174416 61 316 2.0 2.0 0.00 0.00 0.00 86 1007.9
20260831173916 61 54 0.0 0.0 0.00 0.00 0.00 86 1007.7
20260831173415 61 38 1.0 1.0 0.00 0.00 0.00 86 1007.9
20260831172911 61 4 0.0 0.0 0.00 0.00 0.00 86 1007.8
20260831172407 60 46 1.0 2.0 0.00 0.00 0.00 86 1008.0
20260831171906 61 352 0.0 0.0 0.00 0.00 0.00 86 1008.0
20260831171403 61 277 0.0 1.0 0.00 0.00 0.00 86 1008.0
20260831170859 60 19 0.0 0.0 0.00 0.00 0.00 86 1008.1
20260831170354 60 354 0.0 0.0 0.00 0.00 0.00 87 1008.1
20260831165851 60 4 0.0 0.0 0.00 0.00 0.00 87 1008.0
20260831165347 60 13 0.0 0.0 0.00 0.00 0.00 88 1007.8
20260831164843 60 324 0.0 0.0 0.00 0.00 0.00 87 1007.9
20260831164339 60 33 0.0 0.0 0.00 0.00 0.00 87 1007.6
20260831163834 60 35 0.0 0.0 0.00 0.00 0.00 88 1007.9
20260831163330 59 3 0.0 0.0 0.00 0.00 0.00 88 1008.0
20260831162828 59 31 0.0 0.0 0.00 0.00 0.00 88 1007.8
20260831162324 59 26 0.0 0.0 0.00 0.00 0.00 88 1007.8
20260831161822 59 52 0.0 0.0 0.00 0.00 0.00 89 1007.8
20260831161319 59 356 0.0 0.0 0.00 0.00 0.00 89 1007.6
20260831160814 59 52 0.0 0.0 0.00 0.00 0.00 89 1008.0
20260831160308 59 357 0.0 0.0 0.00 0.00 0.00 90 1007.7
20260831155803 58 348 1.0 1.0 0.00 0.00 0.00 90 1007.8
20260831155258 58 8 0.0 0.0 0.00 0.00 0.00 91 1007.8
20260831154754 58 62 0.0 0.0 0.00 0.00 0.00 91 1007.6
20260831154250 58 19 0.0 0.0 0.00 0.00 0.00 92 1007.8
20260831153748 58 36 0.0 0.0 0.00 0.00 0.00 91 1007.8
20260831153244 57 39 1.0 1.0 0.00 0.00 0.00 91 1007.7
20260831152740 57 4 0.0 0.0 0.00 0.00 0.00 92 1007.8
20260831152236 57 40 0.0 0.0 0.00 0.00 0.00 92 1007.6
20260831151735 57 29 0.0 0.0 0.00 0.00 0.00 92 1007.4
20260831151230 57 9 0.0 0.0 0.00 0.00 0.00 93 1007.5
20260831150725 57 23 0.0 0.0 0.00 0.00 0.00 92 1007.4
20260831150220 57 45 0.0 1.0 0.00 0.00 0.00 93 1007.3
20260831145719 56 50 0.0 0.0 0.00 0.00 0.00 94 1007.6
20260831145215 56 43 0.0 0.0 0.00 0.00 0.00 94 1007.4
20260831144711 56 46 0.0 0.0 0.00 0.00 0.00 95 1007.6
20260831144207 56 46 0.0 0.0 0.00 0.00 0.00 94 1007.5
20260831143706 56 47 0.0 0.0 0.00 0.00 0.00 94 1007.6
20260831143201 56 39 0.0 0.0 0.00 0.00 0.00 94 1007.5
20260831142657 56 36 0.0 0.0 0.00 0.00 0.00 94 1007.3
20260831142153 56 34 0.0 0.0 0.00 0.00 0.00 95 1007.4
20260831141652 56 45 0.0 0.0 0.00 0.00 0.00 95 1007.4
20260831141147 56 33 0.0 0.0 0.00 0.00 0.00 95 1007.1
20260831140646 56 45 0.0 0.0 0.00 0.00 0.00 96 1007.1
20260831140141 56 32 0.0 0.0 0.00 0.00 0.00 96 1007.1